STARLINK-11520, 62834

Orbit data source: Space-Track

STARLINK-11520, 62834 is a payload satellite owned by SpaceX/Seattle (US) in LEO that was launched on Mon, 27 Jan 2025 UTC via an FALCON 9 launch vehicle from the Air Force Eastern Test Range (AFETR). Payload-class satellites include a variety of spacecraft equipped with specific instruments for various scientific and technological missions. These include communications satellites like Starlink; space stations such as the ISS; scientific satellites like the Hubble; Earth observation satellites from companies like Planet Labs, Umbra, and HawkEye 360; GPS; miniature CubeSats for education and research; and military/defense satellites.

Loading next visibility...
Identifier
62834, 2025-019F
Orbit
LEO
Last TLE update
7 hours ago
Origin
Manufacturer
SpaceX/Seattle
Mission
Operational Commercial Communications
Bus & Motor
STARLINK V2M, Unknown motor
Mass
730 kg wet, ~700 kg dry
Launch date (UTC)
2025-01-27 (3 months ago)
Launch vehicle
FALCON 9
Launch site
Air Force Eastern Test Range (AFETR)
Object type
Payload
Rocket body
Debris
Shape & HBR
Box + 2 Pan, 29 m
Radar Cross Section
36.964 m², Large (>1 m²)

Expand to show TLE details & history

TLE from 7 hours ago
0 STARLINK-11520
1 62834U 25019F   25128.93861064  .00004570  00000-0  39077-4 0  9991
2 62834  43.0014 342.7134 0000584 291.1581  68.9224 15.70845229 15960
Epoch: 2025-05-08T22:31Z
Definitive object data (Epoch: 2025-05-08T22:31:35.959Z)
Latitude
-0.00002°
Longitude
137.81162°
Altitude
356.11 km
Speed
7.697 km/s
True Right ascension
22h 50m 51s
True Declination
0° 00' 00"
Sunlit
Object was in daylight at TLE epoch
Visualization TLE readout
Latitude
-7.16022°
Longitude
-36.22677°
Altitude
357.536 km
Speed
7.696 km/s
Apparent Right ascension
08h 08m 50s
Apparent Declination
-51° 38' 58"
Sunlit
Object is in full shadow
Visualization observer readout
Local Sidereal Time
13:34:54
Azimuth
222.907° SW
Elevation
-25.658°
Doppler factor
1
Orbital elements
Apogee altitude
358.855 km
Perigee altitude
358.068 km
Semi-major axis
6,736.598 km
Eccentricity
0.0000584
Inclination
43.0014°
RAAN
342.7134°
Arg. of periapsis
291.1581°
True anomaly
68.92864°
Mean anomaly
68.9224°
Eccentric anomaly
68.92552°
Mean motion
3.92538 °/min
BSTAR
0.000039077
Orbital period
91.71 mins
Loading maneuver chart data...
Loading SW <> Apogee altitude chart data...
Loading historical data...
Loading historical data...
Loading historical data...
Loading historical data...
Loading historical data...
Loading historical data...
Loading historical data...

STARLINK-11520 Visibility forecast

Observer location: undefined°, undefined°

Span
Click to sort rows by Start time (UTC) header in descending order
Start Az.
Max El. time (UTC)
Max El. Az.
Max El.
End time (UTC)
End Az.
4 mins2025-05-09 17:02:14.092Z190.315° SSW2025-05-09 17:04:14.092Z142.304° SSE18.131°2025-05-09 17:06:14.092Z99.069° ESE
4 mins2025-05-09 18:38:14.092Z255.299° W2025-05-09 18:40:14.092Z55.764° ENE42.824°2025-05-09 18:42:14.092Z70.51° E
4 mins2025-05-09 21:51:14.092Z293.241° NW2025-05-09 21:52:14.092Z315.875° NNW43.195°2025-05-09 21:55:14.092Z104.517° ESE
|